User: anonymous   Login
Location: Brede
(50.9167°N, 0.6000°E)
Time: 11:43:49
(UTC+00:00)
Language:

SL-24 R/B - Orbit

View from above orbital plane
View from above orbital plane
View from above satellite
View from above satellite

Ground track
Ground track

The orbit data is extracted from the following two-line orbital elements,

1 36509U 10013B   20304.73676182 -.00000017 +00000-0 -13107-4 0  9993
2 36509 091.9208 010.7977 0276703 126.4146 236.2890 13.93409616537179
Epoch (UTC): 30 October 2020 17:40:56
Eccentricity: 0.0276703
inclination: 91.9208°
perigee height: 715 km
apogee height: 1118 km
right ascension of ascending node: 10.7977°
argument of perigee: 126.4146°
revolutions per day: 13.93409616
mean anomaly at epoch: 236.2890°
orbit number at epoch: 53717

The dashed part of the orbit path shows where the satellite is in the earth's shadow,  

DLR